Time,TemperatureF,DewpointF,PressureIn,WindDirection,WindDirectionDegrees,WindSpeedMPH,WindSpeedGustMPH,Humidity,HourlyPrecipIn,Conditions,Clouds,dailyrainin,SoftwareType,DateUTC
2013-06-17 00:03:00,74.9,68.0,29.92,NNW,333,0.0,0.0,80,0.00,,,0.00,weatherlink.com 1.10,2013-06-17 04:03:00,
2013-06-17 00:18:00,74.3,68.0,29.92,NNW,333,0.0,0.0,81,0.00,,,0.00,weatherlink.com 1.10,2013-06-17 04:18:00,
2013-06-17 00:33:00,74.0,68.0,29.92,NNW,333,0.0,0.0,81,0.00,,,0.00,weatherlink.com 1.10,2013-06-17 04:33:00,
2013-06-17 00:48:00,73.8,68.0,29.92,NNW,333,0.0,0.0,81,0.00,,,0.00,weatherlink.com 1.10,2013-06-17 04:48:00,
2013-06-17 01:03:00,73.4,67.0,29.92,NNW,333,0.0,0.0,81,0.00,,,0.00,weatherlink.com 1.10,2013-06-17 05:03:00,
2013-06-17 01:18:00,73.0,68.0,29.92,NNW,333,0.0,0.0,83,0.00,,,0.00,weatherlink.com 1.10,2013-06-17 05:18:00,
2013-06-17 01:33:00,72.8,67.0,29.92,NNW,333,0.0,0.0,82,0.00,,,0.00,weatherlink.com 1.10,2013-06-17 05:33:00,
2013-06-17 01:48:00,72.7,67.0,29.92,NNW,333,0.0,0.0,83,0.00,,,0.00,weatherlink.com 1.10,2013-06-17 05:48:00,
2013-06-17 02:03:00,72.7,67.0,29.92,NNW,333,0.0,0.0,83,0.00,,,0.00,weatherlink.com 1.10,2013-06-17 06:03:00,
2013-06-17 02:18:00,72.8,67.0,29.92,NNW,333,0.0,0.0,83,0.00,,,0.00,weatherlink.com 1.10,2013-06-17 06:18:00,
2013-06-17 02:33:00,73.0,68.0,29.92,NNW,333,0.0,0.0,84,0.00,,,0.00,weatherlink.com 1.10,2013-06-17 06:33:00,
2013-06-17 02:48:00,73.1,68.0,29.92,NNW,333,0.0,0.0,84,0.00,,,0.00,weatherlink.com 1.10,2013-06-17 06:48:00,
2013-06-17 03:03:00,72.9,68.0,29.92,NNW,333,0.0,0.0,84,0.00,,,0.00,weatherlink.com 1.10,2013-06-17 07:03:00,
2013-06-17 03:18:00,72.6,68.0,29.92,NNW,333,0.0,0.0,85,0.00,,,0.00,weatherlink.com 1.10,2013-06-17 07:18:00,
2013-06-17 03:33:00,72.4,68.0,29.92,NNW,333,0.0,0.0,85,0.00,,,0.00,weatherlink.com 1.10,2013-06-17 07:33:00,
2013-06-17 03:48:00,72.3,68.0,29.93,NNW,333,0.0,0.0,86,0.00,,,0.00,weatherlink.com 1.10,2013-06-17 07:48:00,
2013-06-17 04:03:00,72.4,68.0,29.93,NNW,333,0.0,0.0,86,0.00,,,0.00,weatherlink.com 1.10,2013-06-17 08:03:00,
2013-06-17 04:18:00,72.5,68.0,29.93,NNW,333,0.0,0.0,86,0.00,,,0.00,weatherlink.com 1.10,2013-06-17 08:18:00,
2013-06-17 04:33:00,72.7,68.0,29.93,NNW,333,0.0,0.0,86,0.00,,,0.00,weatherlink.com 1.10,2013-06-17 08:33:00,
2013-06-17 04:48:00,72.5,68.0,29.93,NNW,333,0.0,0.0,85,0.00,,,0.00,weatherlink.com 1.10,2013-06-17 08:48:00,
2013-06-17 05:03:00,72.7,67.0,29.93,NNW,333,0.0,0.0,83,0.00,,,0.00,weatherlink.com 1.10,2013-06-17 09:03:00,
2013-06-17 05:18:00,72.7,67.0,29.93,NNW,333,0.0,0.0,82,0.00,,,0.00,weatherlink.com 1.10,2013-06-17 09:18:00,
2013-06-17 05:33:00,72.6,67.0,29.93,NNW,333,0.0,0.0,82,0.00,,,0.00,weatherlink.com 1.10,2013-06-17 09:33:00,
2013-06-17 05:48:00,72.3,67.0,29.94,NNW,333,0.0,0.0,83,0.00,,,0.00,weatherlink.com 1.10,2013-06-17 09:48:00,
2013-06-17 06:03:00,71.6,67.0,29.94,NNW,333,0.0,0.0,84,0.00,,,0.00,weatherlink.com 1.10,2013-06-17 10:03:00,
2013-06-17 06:18:00,71.4,67.0,29.94,NNW,333,0.0,0.0,85,0.00,,,0.00,weatherlink.com 1.10,2013-06-17 10:18:00,
2013-06-17 06:33:00,71.5,67.0,29.94,NNW,333,0.0,0.0,86,0.00,,,0.00,weatherlink.com 1.10,2013-06-17 10:33:00,
2013-06-17 06:48:00,71.6,68.0,29.94,NNW,333,0.0,0.0,87,0.00,,,0.00,weatherlink.com 1.10,2013-06-17 10:48:00,
2013-06-17 07:03:00,72.3,68.0,29.95,NNW,333,0.0,0.0,86,0.00,,,0.00,weatherlink.com 1.10,2013-06-17 11:03:00,
2013-06-17 07:18:00,73.3,68.0,29.95,NNW,333,0.0,0.0,83,0.00,,,0.00,weatherlink.com 1.10,2013-06-17 11:18:00,
2013-06-17 07:33:00,73.9,69.0,29.95,NNW,333,0.0,0.0,83,0.00,,,0.00,weatherlink.com 1.10,2013-06-17 11:33:00,
2013-06-17 07:48:00,74.3,68.0,29.95,NW,325,0.0,2.0,81,0.00,,,0.00,weatherlink.com 1.10,2013-06-17 11:48:00,
2013-06-17 08:03:00,74.8,69.0,29.95,NW,325,0.0,2.0,81,0.00,,,0.00,weatherlink.com 1.10,2013-06-17 12:03:00,
2013-06-17 08:18:00,74.9,68.0,29.96,NW,317,1.0,4.0,80,0.00,,,0.00,weatherlink.com 1.10,2013-06-17 12:18:00,
2013-06-17 08:33:00,75.3,68.0,29.96,NW,321,0.0,2.0,79,0.00,,,0.00,weatherlink.com 1.10,2013-06-17 12:33:00,
2013-06-17 08:48:00,76.4,69.0,29.96,NW,307,0.0,4.0,78,0.00,,,0.00,weatherlink.com 1.10,2013-06-17 12:48:00,
2013-06-17 09:03:00,76.9,69.0,29.96,NNW,335,0.0,5.0,77,0.00,,,0.00,weatherlink.com 1.10,2013-06-17 13:03:00,
2013-06-17 09:18:00,77.5,69.0,29.96,NNW,335,0.0,1.0,76,0.00,,,0.00,weatherlink.com 1.10,2013-06-17 13:18:00,
2013-06-17 09:33:00,77.9,69.0,29.96,NNW,335,0.0,0.0,75,0.00,,,0.00,weatherlink.com 1.10,2013-06-17 13:33:00,
2013-06-17 09:49:00,79.0,70.0,29.95,NW,307,0.0,2.0,73,0.00,,,0.00,weatherlink.com 1.10,2013-06-17 13:49:00,
2013-06-17 10:04:00,79.3,70.0,29.95,NW,316,0.0,4.0,74,0.00,,,0.00,weatherlink.com 1.10,2013-06-17 14:04:00,
2013-06-17 10:19:00,80.3,71.0,29.95,WSW,250,0.0,1.0,73,0.00,,,0.00,weatherlink.com 1.10,2013-06-17 14:19:00,
2013-06-17 10:34:00,80.8,70.0,29.94,WNW,300,0.0,2.0,70,0.00,,,0.00,weatherlink.com 1.10,2013-06-17 14:34:00,
2013-06-17 10:49:00,81.1,70.0,29.94,WNW,300,0.0,2.0,70,0.00,,,0.00,weatherlink.com 1.10,2013-06-17 14:49:00,
2013-06-17 11:04:00,82.5,69.0,29.93,NW,309,0.0,2.0,64,0.00,,,0.00,weatherlink.com 1.10,2013-06-17 15:04:00,
2013-06-17 11:19:00,83.4,72.0,29.93,West,269,0.0,2.0,68,0.00,,,0.00,weatherlink.com 1.10,2013-06-17 15:19:00,
2013-06-17 11:34:00,83.3,72.0,29.93,ENE,67,0.0,4.0,68,0.00,,,0.00,weatherlink.com 1.10,2013-06-17 15:34:00,
2013-06-17 11:49:00,83.2,73.0,29.93,NE,56,0.0,5.0,71,0.00,,,0.00,weatherlink.com 1.10,2013-06-17 15:49:00,
2013-06-17 12:04:00,82.7,71.0,29.93,NNW,334,0.0,2.0,67,0.00,,,0.00,weatherlink.com 1.10,2013-06-17 16:04:00,
2013-06-17 12:19:00,82.7,70.0,29.93,NW,309,0.0,4.0,66,0.00,,,0.00,weatherlink.com 1.10,2013-06-17 16:19:00,
2013-06-17 12:34:00,82.0,70.0,29.93,NW,317,0.0,4.0,66,0.00,,,0.00,weatherlink.com 1.10,2013-06-17 16:34:00,
2013-06-17 12:49:00,80.7,69.0,29.93,WNW,286,0.0,4.0,68,0.01,,,0.01,weatherlink.com 1.10,2013-06-17 16:49:00,
2013-06-17 13:04:00,78.6,71.0,29.93,WNW,286,0.0,0.0,78,0.01,,,0.01,weatherlink.com 1.10,2013-06-17 17:04:00,
2013-06-17 13:19:00,82.0,70.0,29.93,WNW,296,3.0,5.0,67,0.01,,,0.01,weatherlink.com 1.10,2013-06-17 17:19:00,
2013-06-17 13:34:00,83.8,72.0,29.93,NW,325,0.0,2.0,67,0.01,,,0.01,weatherlink.com 1.10,2013-06-17 17:34:00,
2013-06-17 13:49:00,83.4,72.0,29.92,West,262,1.0,2.0,69,0.00,,,0.01,weatherlink.com 1.10,2013-06-17 17:49:00,
2013-06-17 14:04:00,84.0,72.0,29.92,ENE,65,0.0,5.0,67,0.00,,,0.01,weatherlink.com 1.10,2013-06-17 18:04:00,
2013-06-17 14:19:00,85.2,74.0,29.92,East,79,1.0,6.0,68,0.00,,,0.01,weatherlink.com 1.10,2013-06-17 18:19:00,
2013-06-17 14:34:00,85.8,73.0,29.91,NW,314,0.0,6.0,65,0.00,,,0.01,weatherlink.com 1.10,2013-06-17 18:34:00,
2013-06-17 14:49:00,84.7,70.0,29.91,SW,221,0.0,2.0,62,0.00,,,0.01,weatherlink.com 1.10,2013-06-17 18:49:00,
2013-06-17 15:04:00,84.8,71.0,29.91,SW,221,0.0,1.0,64,0.00,,,0.01,weatherlink.com 1.10,2013-06-17 19:04:00,
2013-06-17 15:19:00,84.0,70.0,29.90,NW,311,0.0,4.0,63,0.00,,,0.01,weatherlink.com 1.10,2013-06-17 19:19:00,
2013-06-17 15:34:00,84.5,71.0,29.90,NW,311,0.0,1.0,64,0.00,,,0.01,weatherlink.com 1.10,2013-06-17 19:34:00,
2013-06-17 15:49:00,84.7,71.0,29.89,NW,311,0.0,1.0,64,0.00,,,0.01,weatherlink.com 1.10,2013-06-17 19:49:00,
2013-06-17 16:04:00,85.8,70.0,29.89,North,351,0.0,1.0,60,0.00,,,0.01,weatherlink.com 1.10,2013-06-17 20:04:00,
2013-06-17 16:19:00,87.8,71.0,29.88,SE,137,0.0,5.0,58,0.00,,,0.01,weatherlink.com 1.10,2013-06-17 20:19:00,
2013-06-17 16:34:00,87.3,70.0,29.88,NW,306,0.0,5.0,57,0.00,,,0.01,weatherlink.com 1.10,2013-06-17 20:34:00,
2013-06-17 16:49:00,87.0,70.0,29.87,SE,127,0.0,5.0,57,0.00,,,0.01,weatherlink.com 1.10,2013-06-17 20:49:00,
2013-06-17 17:04:00,86.6,70.0,29.87,NW,313,2.0,4.0,57,0.00,,,0.01,weatherlink.com 1.10,2013-06-17 21:04:00,
2013-06-17 17:19:00,86.5,69.0,29.87,NNW,332,0.0,4.0,57,0.00,,,0.01,weatherlink.com 1.10,2013-06-17 21:19:00,
2013-06-17 17:34:00,86.6,70.0,29.87,NE,49,0.0,1.0,58,0.00,,,0.01,weatherlink.com 1.10,2013-06-17 21:34:00,
2013-06-17 17:49:00,87.0,70.0,29.87,NW,322,0.0,5.0,57,0.00,,,0.01,weatherlink.com 1.10,2013-06-17 21:49:00,
2013-06-17 18:04:00,86.8,70.0,29.88,SSW,203,0.0,2.0,57,0.00,,,0.01,weatherlink.com 1.10,2013-06-17 22:04:00,
2013-06-17 18:19:00,87.2,70.0,29.88,WSW,252,1.0,5.0,57,0.00,,,0.01,weatherlink.com 1.10,2013-06-17 22:19:00,
2013-06-17 18:34:00,87.5,72.0,29.88,NNE,13,0.0,1.0,60,0.00,,,0.01,weatherlink.com 1.10,2013-06-17 22:34:00,
2013-06-17 18:49:00,85.3,70.0,29.88,ESE,119,2.0,5.0,61,0.00,,,0.01,weatherlink.com 1.10,2013-06-17 22:49:00,
2013-06-17 19:04:00,84.4,71.0,29.89,ENE,78,0.0,4.0,65,0.00,,,0.01,weatherlink.com 1.10,2013-06-17 23:04:00,
2013-06-17 19:19:00,83.7,71.0,29.88,SE,132,0.0,5.0,66,0.00,,,0.01,weatherlink.com 1.10,2013-06-17 23:19:00,
2013-06-17 19:34:00,83.7,71.0,29.88,SE,132,0.0,1.0,66,0.00,,,0.01,weatherlink.com 1.10,2013-06-17 23:34:00,
2013-06-17 19:49:00,83.3,72.0,29.88,SE,132,0.0,1.0,69,0.00,,,0.01,weatherlink.com 1.10,2013-06-17 23:49:00,
2013-06-17 20:04:00,82.7,72.0,29.88,South,176,0.0,1.0,69,0.00,,,0.01,weatherlink.com 1.10,2013-06-18 00:04:00,
2013-06-17 20:19:00,82.1,71.0,29.89,SSE,162,0.0,0.0,70,0.00,,,0.01,weatherlink.com 1.10,2013-06-18 00:19:00,
2013-06-17 20:34:00,81.6,71.0,29.89,SSE,162,0.0,0.0,71,0.00,,,0.01,weatherlink.com 1.10,2013-06-18 00:34:00,
2013-06-17 20:49:00,81.2,71.0,29.90,SSE,162,0.0,1.0,72,0.00,,,0.01,weatherlink.com 1.10,2013-06-18 00:49:00,
2013-06-17 21:04:00,80.9,72.0,29.90,SSE,162,0.0,1.0,74,0.00,,,0.01,weatherlink.com 1.10,2013-06-18 01:04:00,
2013-06-17 21:19:00,80.4,72.0,29.90,SSE,162,0.0,0.0,75,0.00,,,0.01,weatherlink.com 1.10,2013-06-18 01:19:00,
2013-06-17 21:34:00,80.1,72.0,29.90,SE,134,0.0,1.0,76,0.00,,,0.01,weatherlink.com 1.10,2013-06-18 01:34:00,
2013-06-17 21:49:00,79.7,72.0,29.90,SE,134,0.0,0.0,77,0.00,,,0.01,weatherlink.com 1.10,2013-06-18 01:49:00,
2013-06-17 22:04:00,79.4,72.0,29.91,SE,134,0.0,0.0,78,0.00,,,0.01,weatherlink.com 1.10,2013-06-18 02:04:00,
2013-06-17 22:19:00,79.4,72.0,29.91,SE,134,0.0,1.0,79,0.00,,,0.01,weatherlink.com 1.10,2013-06-18 02:19:00,
2013-06-17 22:34:00,79.6,72.0,29.92,NNW,342,0.0,4.0,78,0.00,,,0.01,weatherlink.com 1.10,2013-06-18 02:34:00,
2013-06-17 22:49:00,79.4,72.0,29.92,North,352,0.0,4.0,79,0.00,,,0.01,weatherlink.com 1.10,2013-06-18 02:49:00,
2013-06-17 23:04:00,79.0,72.0,29.92,North,352,0.0,1.0,80,0.00,,,0.01,weatherlink.com 1.10,2013-06-18 03:04:00,
2013-06-17 23:19:00,78.5,72.0,29.92,North,352,0.0,1.0,81,0.00,,,0.01,weatherlink.com 1.10,2013-06-18 03:19:00,
2013-06-17 23:34:00,78.4,72.0,29.92,North,352,0.0,1.0,81,0.00,,,0.01,weatherlink.com 1.10,2013-06-18 03:34:00,
2013-06-17 23:49:00,78.4,72.0,29.91,North,352,0.0,1.0,81,0.00,,,0.01,weatherlink.com 1.10,2013-06-18 03:49:00,